Flag for Germany Weather past 2 weeks in Radolfzell am Bodensee, Baden-Württemberg, Germany

Now
53 °F

Sprinkles. Overcast.


Feels Like: 53 °F
Forecast: 38 / 64 °F
Wind: 3 mph from Northeast

Location: Konstanz

Current Time: May 26, 2015 at 4:23:42 PM

Latest Report: May 26, 2015 at 4:00 PM


Visibility: 5 mi

Pressure: 30.08 "Hg

Humidity: 79%

Dew point: 47 °F

Location of Radolfzell am BodenseeLocation

Historic Weather in Radolfzell am Bodensee — Graph

°F

Radolfzell am Bodensee temperature yesterday

Maximum temperature yesterday: 65 °F (at 12:00 PM)
Minimum temperature yesterday: 53 °F (at 10:00 PM)
Average temperature yesterday: 58 °F

Past Weeks' High & Low Weather Summary

 TemperatureHumidityPressure
High84 °F (May 12, 6:00 PM)97% (May 15, 2:00 PM)30.33 "Hg (May 15, 2:00 PM)
Low44 °F (May 21, 4:00 AM)26% (May 12, 7:00 PM)29.70 "Hg (May 18, 7:00 PM)
Average58 °F73%30.05 "Hg
* Reported May 11 3:00 PM — May 26 3:00 PM, Radolfzell am Bodensee, Weather by CustomWeather, © 2015

Note: Actual official high and low records may vary slightly from our data, if they occured in-between our weather recording intervals... More about our weather records

Advertising

Radolfzell am Bodensee weather history for previous 24 hours

 ConditionsComfort  
Time TempWeatherWind HumidityBarometerVisibility
3:00 PM
Tue, May 26
57 °FOvercast.2 mph75%30.05 "Hg9 mi
2:00 PM57 °FOvercast.2 mph72%30.05 "Hg12 mi
1:00 PM60 °FOvercast.3 mph66%30.03 "Hg12 mi
12:00 PM55 °FOvercast.1 mph75%30.05 "Hg12 mi
11:00 AM56 °FOvercast.3 mph74%30.03 "Hg12 mi
10:00 AM53 °FOvercast.2 mph86%30.03 "Hg7 mi
9:00 AM53 °FLight rain. Overcast.2 mph92%30.01 "Hg9 mi
8:00 AM51 °FLight rain. Overcast.2 mph95%29.99 "Hg5 mi
7:00 AM51 °FRain. Overcast.2 mph95%29.98 "Hg6 mi
5:00 AM52 °FPassing clouds.2 mph96%29.96 "Hg11 mi
4:00 AM53 °FOvercast.2 mph95%29.96 "Hg12 mi
3:00 AM53 °FOvercast.2 mph97%29.96 "Hg18 mi
2:00 AM53 °FOvercast.2 mph96%29.96 "Hg22 mi
1:00 AM53 °FRain. Low clouds.2 mph97%29.97 "Hg2 mi
12:00 AM54 °FLight rain. Low clouds.2 mph96%29.97 "Hg7 mi
11:00 PM
Mon, May 25
53 °FLight rain. Low clouds.1 mph96%29.97 "Hg5 mi
10:00 PM53 °FLight rain. Overcast.1 mph97%29.97 "Hg4 mi
9:00 PM54 °FLight rain. Overcast.2 mph94%29.96 "Hg4 mi
8:00 PM56 °FLight rain. Overcast.1 mph91%29.94 "Hg4 mi
7:00 PM56 °FLight rain. Partly sunny.1 mph88%29.93 "Hg8 mi
6:00 PM56 °FLight rain. Partly sunny.3 mph83%29.94 "Hg14 mi
5:00 PM58 °FLight rain. Overcast.6 mph80%29.93 "Hg10 mi
4:00 PM63 °FOvercast.1 mph63%29.90 "Hg19 mi
Weather by CustomWeather, © 2015

See weather overviewHow to use our weather pages